Flag for Germany Weather past 2 weeks in Lohne (Oldenburg), Lower Saxony, Germany

Now
55 °F

Scattered clouds.


Feels Like: 51 °F
Forecast: 51 / 60 °F
Wind: 17 mph from West

Location: Bremen Airport

Current Time: Sep 5, 2015 at 8:40:37 AM

Latest Report: Sep 5, 2015 at 8:20 AM


Visibility: N/A

Pressure: 29.80 "Hg

Humidity: 94%

Dew point: 54 °F

Location of Lohne (Oldenburg)Location

Historic Weather in Lohne (Oldenburg) — Graph

°F

Lohne (Oldenburg) temperature yesterday

Maximum temperature yesterday: 63 °F (at 2:50 PM)
Minimum temperature yesterday: 50 °F (at 12:20 AM)
Average temperature yesterday: 56 °F

Past Weeks' High & Low Weather Summary

 TemperatureHumidityPressure
High84 °F (Aug 31, 5:20 PM)100% (Aug 21, 7:20 AM)30.27 "Hg (Aug 21, 7:20 AM)
Low46 °F (Sep 3, 1:20 AM)30% (Aug 22, 1:50 PM)29.56 "Hg (Aug 24, 5:50 PM)
Average63 °F76%29.93 "Hg
* Reported Aug 21 7:20 AM — Sep 5 7:20 AM, Lohne (Oldenburg), Weather by CustomWeather, © 2015

Note: Actual official high and low records may vary slightly from our data, if they occured in-between our weather recording intervals... More about our weather records

Advertising

Lohne (Oldenburg) weather history for previous 24 hours

 ConditionsComfort  
Time TempWeatherWind HumidityBarometerVisibility
7:20 AM
Sat, Sep 5
54 °FPassing clouds.14 mph100%29.80 "HgN/A
6:50 AM54 °FPassing clouds.14 mph94%29.80 "HgN/A
6:20 AM54 °FPassing clouds.14 mph94%29.80 "HgN/A
5:50 AM54 °FPassing clouds.14 mph94%29.80 "HgN/A
5:20 AM54 °FClear.13 mph94%29.80 "Hg10 mi
4:50 AM54 °FClear.12 mph94%29.80 "Hg10 mi
4:20 AM54 °FPassing clouds.13 mph94%29.80 "HgN/A
3:50 AM54 °FPassing clouds.13 mph94%29.80 "HgN/A
3:20 AM54 °FPassing clouds.10 mph94%29.80 "HgN/A
2:50 AM54 °FClear.12 mph94%29.80 "Hg10 mi
2:20 AM54 °FPassing clouds.12 mph100%29.77 "HgN/A
1:50 AM55 °FPassing clouds.13 mph94%29.77 "HgN/A
1:20 AM55 °FPartly cloudy.13 mph94%29.77 "Hg5 mi
12:50 AM57 °FSprinkles. Passing clouds.12 mph94%29.77 "Hg5 mi
12:20 AM55 °FSprinkles. Passing clouds.13 mph100%29.74 "Hg6 mi
11:50 PM
Fri, Sep 4
55 °FSprinkles. Passing clouds.15 mph94%29.74 "Hg6 mi
11:20 PM55 °FSprinkles. Passing clouds.15 mph94%29.74 "Hg6 mi
10:50 PM55 °FSprinkles. Passing clouds.15 mph94%29.74 "Hg5 mi
10:20 PM55 °FSprinkles. Passing clouds.14 mph94%29.77 "HgN/A
9:50 PM55 °FSprinkles. Passing clouds.17 mph88%29.77 "HgN/A
9:20 PM57 °FSprinkles. Passing clouds.17 mph82%29.77 "HgN/A
8:50 PM59 °FPartly sunny.16 mph72%29.77 "HgN/A
8:20 PM59 °FBroken clouds.18 mph72%29.77 "HgN/A
7:50 PM59 °FBroken clouds.13 mph72%29.77 "HgN/A
7:20 PM61 °FScattered showers. Broken clouds.15 mph68%29.77 "HgN/A
6:50 PM61 °FPartly sunny.14 mph68%29.80 "HgN/A
6:20 PM61 °FPartly sunny.14 mph68%29.80 "HgN/A
5:50 PM61 °FPartly sunny.14 mph68%29.80 "HgN/A
5:20 PM61 °FPartly sunny.14 mph68%29.80 "HgN/A
4:50 PM61 °FPartly sunny.15 mph68%29.80 "HgN/A
4:20 PM61 °FPartly sunny.12 mph68%29.83 "HgN/A
3:50 PM63 °FPartly sunny.16 mph68%29.83 "HgN/A
3:20 PM63 °FBroken clouds.17 mph64%29.83 "HgN/A
2:50 PM63 °FBroken clouds.16 mph64%29.83 "HgN/A
2:20 PM61 °FBroken clouds.15 mph68%29.86 "HgN/A
1:50 PM61 °FPartly sunny.15 mph68%29.86 "HgN/A
1:20 PM61 °FBroken clouds.17 mph68%29.86 "HgN/A
12:50 PM61 °FBroken clouds.15 mph68%29.86 "HgN/A
12:20 PM61 °FPartly sunny.16 mph68%29.86 "HgN/A
11:50 AM61 °FPartly sunny.17 mph68%29.86 "HgN/A
11:20 AM61 °FBroken clouds.16 mph72%29.86 "HgN/A
10:50 AM57 °FBroken clouds.14 mph77%29.86 "HgN/A
10:20 AM57 °FBroken clouds.14 mph77%29.86 "HgN/A
9:50 AM57 °FLight rain. Broken clouds.14 mph77%29.86 "HgN/A
9:20 AM55 °FSunny.13 mph82%29.86 "Hg10 mi
8:50 AM54 °FSunny.12 mph88%29.86 "Hg10 mi
8:20 AM54 °FSunny.9 mph88%29.89 "Hg10 mi
Weather by CustomWeather, © 2015

See weather overviewHow to use our weather pages